Tallahassee, FL

12:16 PM EDT on May 22, 2017 (GMT -0400)
Tallahassee Regional

Weather History for KTLH - March, 2014

Change the Weather History Date:

Wednesday, March 12, 2014

  Actual Average Record
Temperature  
Mean Temperature 66 °F 60 °F  
Max Temperature 79 °F 73 °F 89 °F (1967)
Min Temperature 52 °F 47 °F 27 °F (1998)
Degree Days  
Heating Degree Days 0    
Month to date heating degree days 98  
Since 1 July heating degree days 1241  
Cooling Degree Days 1    
Month to date cooling degree days 1  
Year to date cooling degree days 13  
Growing Degree Days 18 (Base 50)    
Moisture  
Dew Point 58 °F    
Average Humidity 70    
Maximum Humidity 93    
Minimum Humidity 47    
Precipitation  
Precipitation 0.21 in 0.20 in 1.95 in (2001)
Month to date precipitation 2.55 2.53  
Year to date precipitation 10.60 11.72  
Sea Level Pressure  
Sea Level Pressure 29.76 in    
Wind  
Wind Speed 12 mph (WSW)    
Max Wind Speed 30 mph    
Max Gust Speed 39 mph    
Visibility 8 miles    
Events Rain    
T = Trace of Precipitation, MM = Missing Value Source: NWS Daily Summary

Daily Weather History Graph

Daily Weather History Graph

Search for Another Location

Airport or City:

Trip Planner

Search our weather history database for the weather conditions in past years. The results will help you decide how hot, cold, wet, or windy it might be!

Date:

Astronomy

Mar. 12, 2014 Rise Set
Actual Time 7:50 AM EDT 7:43 PM EDT
Civil Twilight 7:26 AM EDT 8:07 PM EDT
Nautical Twilight 6:59 AM EDT 8:35 PM EDT
Astronomical Twilight 6:31 AM EDT 9:03 PM EDT
Moon 4:25 PM EDT (3/12) 5:09 AM EDT (3/12)
Length of Visible Light 12h 40m
Length of Day
11h 52m
Waxing Gibbous, 85% of the Moon is Illuminated
Mar 12
Waxing Gibbous
Mar 16
Full
Mar 23
Last Quarter
Mar 30
New
Apr 7
First Quarter

Hourly Weather History & Observations

Time (EDT) Temp. Dew Point Humidity Pressure Visibility Wind Dir Wind Speed Gust Speed Precip Events Conditions
12:12 AM 64.4 °F 60.8 °F 88% 29.80 in 9.0 mi South 3.5 mph - 0.01 in Rain Light Rain
12:53 AM 64.9 °F 61.0 °F 87% 29.80 in 7.0 mi SW 4.6 mph - 0.04 in Rain Light Rain
1:06 AM 64.4 °F 60.8 °F 88% 29.81 in 5.0 mi WSW 4.6 mph - 0.03 in Rain Rain
1:17 AM 64.4 °F 60.8 °F 88% 29.76 in 1.8 mi East 12.7 mph - 0.11 in Rain Heavy Rain
1:19 AM 64.4 °F 60.8 °F 88% 29.76 in 2.0 mi East 15.0 mph - 0.17 in Rain Heavy Rain
1:30 AM 64.4 °F 60.8 °F 88% 29.76 in 5.0 mi ESE 8.1 mph - 0.21 in Rain Rain
1:53 AM 64.0 °F 61.0 °F 90% 29.74 in 10.0 mi ESE 4.6 mph - 0.22 in   Overcast
2:13 AM 64.4 °F 60.8 °F 88% 29.76 in 10.0 mi South 3.5 mph - N/A   Overcast
2:53 AM 64.9 °F 61.0 °F 87% 29.75 in 10.0 mi Calm Calm - N/A   Overcast
3:14 AM 64.4 °F 60.8 °F 88% 29.74 in 10.0 mi South 3.5 mph - N/A   Overcast
3:21 AM 64.4 °F 60.8 °F 88% 29.74 in 10.0 mi Calm Calm - N/A   Overcast
3:32 AM 64.4 °F 60.8 °F 88% 29.74 in 10.0 mi Calm Calm - N/A   Overcast
3:53 AM 64.0 °F 61.0 °F 90% 29.73 in 10.0 mi SSW 3.5 mph - N/A   Overcast
4:15 AM 64.4 °F 60.8 °F 88% 29.71 in 10.0 mi Calm Calm - N/A   Overcast
4:53 AM 63.0 °F 59.0 °F 87% 29.71 in 10.0 mi North - - N/A   Overcast
5:23 AM 62.6 °F 60.8 °F 94% 29.71 in 6.0 mi Variable 3.5 mph - N/A   Overcast
5:36 AM 62.6 °F 60.8 °F 94% 29.71 in 1.8 mi Calm Calm - N/A   Overcast
5:53 AM 63.0 °F 60.1 °F 90% 29.71 in 0.8 mi Calm Calm - N/A   Mist
6:11 AM 62.6 °F 60.8 °F 94% 29.72 in 1.2 mi SSW 5.8 mph - N/A   Overcast
6:30 AM 62.6 °F 60.8 °F 94% 29.73 in 2.0 mi SW 4.6 mph - N/A   Overcast
6:42 AM 62.6 °F 60.8 °F 94% 29.72 in 3.0 mi SSW 5.8 mph - N/A   Overcast
6:53 AM 63.0 °F 60.1 °F 90% 29.71 in 4.0 mi SSW 6.9 mph - N/A   Overcast
7:53 AM 64.9 °F 61.0 °F 87% 29.75 in 10.0 mi WSW 11.5 mph - N/A   Overcast
8:27 AM 64.4 °F 60.8 °F 88% 29.75 in 10.0 mi WSW 8.1 mph - N/A   Overcast
8:39 AM 66.2 °F 60.8 °F 83% 29.76 in 10.0 mi SW 8.1 mph - N/A   Overcast
8:53 AM 66.0 °F 61.0 °F 84% 29.75 in 10.0 mi SW 9.2 mph - N/A   Scattered Clouds
9:18 AM 66.2 °F 60.8 °F 83% 29.77 in 10.0 mi WSW 11.5 mph 20.7 mph N/A   Mostly Cloudy
9:53 AM 66.9 °F 61.0 °F 81% 29.78 in 10.0 mi West 12.7 mph - N/A   Overcast
10:53 AM 70.0 °F 60.1 °F 71% 29.78 in 10.0 mi West 17.3 mph 24.2 mph N/A   Mostly Cloudy
11:53 AM 71.1 °F 59.0 °F 66% 29.77 in 10.0 mi West 16.1 mph 23.0 mph N/A   Mostly Cloudy
12:45 PM 75.2 °F 59.0 °F 57% 29.77 in 10.0 mi WSW 13.8 mph - N/A   Mostly Cloudy
12:53 PM 75.0 °F 57.9 °F 55% 29.76 in 10.0 mi West 13.8 mph 26.5 mph N/A   Mostly Cloudy
1:53 PM 77.0 °F 55.9 °F 48% 29.74 in 10.0 mi West 12.7 mph 25.3 mph N/A   Mostly Cloudy
2:53 PM 77.0 °F 55.0 °F 47% 29.72 in 10.0 mi West 15.0 mph 21.9 mph N/A   Mostly Cloudy
3:53 PM 77.0 °F 55.0 °F 47% 29.70 in 10.0 mi West 12.7 mph 20.7 mph N/A   Mostly Cloudy
4:53 PM 75.9 °F 55.9 °F 50% 29.70 in 10.0 mi WNW 17.3 mph 21.9 mph N/A   Mostly Cloudy
5:53 PM 77.0 °F 57.9 °F 52% 29.70 in 10.0 mi WSW 13.8 mph - N/A   Mostly Cloudy
6:53 PM 73.9 °F 57.9 °F 57% 29.71 in 10.0 mi West 12.7 mph - N/A   Scattered Clouds
7:53 PM 71.1 °F 57.9 °F 63% 29.74 in 10.0 mi West 11.5 mph - N/A   Mostly Cloudy
8:53 PM 68.0 °F 57.9 °F 70% 29.78 in 10.0 mi WSW 8.1 mph - N/A   Mostly Cloudy
9:28 PM 68.0 °F 51.8 °F 56% 29.82 in 10.0 mi NW 16.1 mph 24.2 mph N/A   Scattered Clouds
9:53 PM 64.0 °F 46.0 °F 52% 29.86 in 10.0 mi NNW 27.6 mph 36.8 mph N/A   Scattered Clouds
10:53 PM 57.0 °F 37.0 °F 47% 29.93 in 10.0 mi NNW 25.3 mph 35.7 mph N/A   Partly Cloudy
11:53 PM 54.0 °F 35.1 °F 49% 29.97 in 10.0 mi NNW 17.3 mph 27.6 mph N/A   Clear